LANDSAT 4 1 13367U 82072A 10067.73632914 +.00000237 +00000-0 +23033-4 0 03719 2 13367 098.1950 002.3306 0018681 167.5051 192.6637 15.02356995484237 TDRS 1 1 13969U 83026B 10066.22556627 -.00000314 +00000-0 +10000-3 0 00450 2 13969 013.5268 007.1753 0031305 252.6987 289.7734 01.00276624071634 LANDSAT 5 1 14780U 84021A 10065.99326209 .00000020 00000-0 14399-4 0 5793 2 14780 098.2090 135.4087 0003179 034.9246 325.2161 14.57111046383651 ERBS 1 15354U 84108B 10066.22004991 -.00000085 00000-0 10935-4 0 3258 2 15354 056.9866 149.2063 0018360 172.8330 187.2997 15.16030755391949 TDRS 3 1 19548U 88091B 10066.22586333 -.00000303 +00000-0 +10000-3 0 04512 2 19548 012.3311 037.2077 0036069 317.8471 202.2886 01.00270919065784 TDRS 4 1 19883U 89021B 10067.09890917 -.00000293 +00000-0 +10000-3 0 07656 2 19883 011.0728 048.7781 0007885 320.4131 146.2958 01.00269274249367 HST 1 20580U 90037B 10066.57864224 +.00000570 +00000-0 +30822-4 0 05329 2 20580 028.4687 183.1574 0003395 198.8317 161.2293 15.00913799889472 TDRS 5 1 21639U 91054B 10067.35100980 +.00000092 +00000-0 +10000-3 0 06015 2 21639 010.4526 052.4633 0020713 319.9312 112.3853 01.00264989068113 UARS 1 21701U 91063B 10067.95727964 +.00009212 +00000-0 +11230-3 0 09212 2 21701 056.9733 280.7396 0064798 335.6906 024.1100 15.58858985020458 TOPEX/POSEIDON 1 22076U 92052A 10066.04651252 -.00000038 00000-0 10000-3 0 4893 2 22076 066.0377 244.7108 0007125 268.1624 091.8568 12.80950837821919 TDRS 6 1 22314U 93003B 10065.40294903 +.00000079 +00000-0 +10000-3 0 06335 2 22314 009.8078 055.4728 0010581 324.1901 118.1972 01.00279588062818 TDRS 7 1 23613U 95035B 10067.69736793 -.00000202 +00000-0 +00000-0 0 06869 2 23613 011.5894 045.2720 0034667 317.5441 139.4030 01.00269614053643 XTE 1 23757U 95074A 10065.98037957 .00002266 00000-0 64453-4 0 756 2 23757 022.9827 322.1638 0008072 041.8969 318.2156 15.27736701786001 TRMM 1 25063U 97074A 10067.96664766 +.00006952 +00000-0 +96632-4 0 03049 2 25063 034.9656 027.1699 0000976 266.5612 093.5007 15.56203905701362 ETS 7 1 25064U 97074B 10067.69631776 +.00001457 +00000-0 +57437-4 0 00261 2 25064 034.9577 161.7567 0003800 118.7292 241.3806 15.25541578681426 ISS (ZARYA) 1 25544U 98067A 10066.48187660 .00014123 00000-0 10239-3 0 7215 2 25544 051.6482 032.7439 0007757 023.0370 074.9567 15.73705588647450 LANDSAT 7 1 25682U 99020A 10066.16571677 .00000022 00000-0 14926-4 0 6780 2 25682 098.2202 135.8025 0001046 116.6929 243.4377 14.57104483579375 FUSE 1 1 25791U 99035A 10067.64138971 +.00000259 +00000-0 +23610-4 0 06509 2 25791 024.9840 146.6970 0010516 171.9617 188.1066 14.41815465564601 TERRA 1 25994U 99068A 10066.11474751 .00000115 00000-0 35545-4 0 5724 2 25994 098.2116 142.2130 0000744 059.9770 300.1515 14.57109547543441 TDRS 8 1 26388U 00034A 10066.01933042 -.00000236 +00000-0 +10000-3 0 01188 2 26388 002.0087 096.4125 0004318 231.2141 293.0604 01.00275042035567 EO 1 1 26619U 00075A 10066.10407989 .00000188 00000-0 46675-4 0 9390 2 26619 098.1439 134.7121 0009969 197.7816 162.3046 14.62083840494680 TIMED 1 26998U 01055B 10067.78657624 +.00000246 +00000-0 +33813-4 0 05196 2 26998 074.0735 186.6991 0001914 241.5941 118.5054 14.84142427446772 TDRS 9 1 27389U 02011A 10065.10786764 -.00000293 +00000-0 +00000-0 0 05007 2 27389 001.8407 217.2506 0015381 150.7435 132.0399 01.00262668030806 AQUA 1 27424U 02022A 10067.71511911 +.00000102 +00000-0 +32737-4 0 05787 2 27424 098.2094 010.7149 0001652 072.1760 287.9602 14.57122354417282 TDRS 10 1 27566U 02055A 10066.03637447 -.00000278 +00000-0 +10000-3 0 02282 2 27566 000.5052 297.8976 0004380 331.7675 227.2412 01.00273261026645 SORCE 1 27651U 03004A 10067.73138340 +.00000172 +00000-0 +36999-4 0 01443 2 27651 039.9971 294.2204 0024925 022.2565 337.9288 14.82276766385553 GALEX 1 27783U 03017A 10067.48436246 +.00000321 +00000-0 +44438-4 0 08890 2 27783 028.9977 090.5752 0004631 172.1050 187.9635 14.59803372366432 GP-B 1 28230U 04014A 10065.81305673 .00000072 00000-0 81750-5 0 7284 2 28230 089.9407 156.1587 0001966 066.2004 293.9442 14.76023385316515 AURA 1 28376U 04026A 10067.85775766 +.00000134 +00000-0 +39674-4 0 07431 2 28376 098.2072 012.9276 0001400 075.5559 284.5798 14.57118569300355 SWIFT 1 28485U 04047A 10067.64532501 +.00000803 +00000-0 +37614-4 0 05275 2 28485 020.5573 183.7611 0014326 096.4602 263.7467 14.92679942289233 THEMIS A 1 30580U 07004A 10068.00000000 -.00000561 +00000-0 +10000-3 0 06626 2 30580 008.7435 228.0190 7880549 149.9990 351.0104 00.96580670010555 THEMIS B 1 30581U 07004B 10050.78125000 -.00184005 00000-0 10000-3 0 2825 2 30581 022.7111 349.3538 6700495 228.6594 057.2247 00.01493177 6437 THEMIS C 1 30582U 07004C 10048.00000000 -.00004037 00000-0 00000+0 0 4597 2 30582 003.9018 004.5064 9123930 340.9311 229.9652 00.14442210 5703 THEMIS D 1 30797U 07004D 10063.87500000 -.00000337 00000-0 00000+0 0 8146 2 30797 003.7247 226.1103 7579364 154.6690 351.3126 01.00268371 10367 THEMIS E 1 30798U 07004E 10063.87500000 -.00000333 00000-0 00000+0 0 8334 2 30798 003.7186 231.2610 7459871 149.1868 351.1889 01.00272729 10508 AIM 1 31304U 07015A 10065.88377260 .00000410 00000-0 45568-4 0 9770 2 31304 097.8002 169.1067 0012784 071.4823 288.7794 14.92355211155971 C/NOFS 1 32765U 08017A 10067.19243668 +.00005552 +00000-0 +23605-3 0 05028 2 32765 013.0030 034.2404 0309964 059.4894 303.5625 14.82474847102533 GLAST 1 33053U 08029A 10065.96359774 .00000279 00000-0 00000+0 0 4548 2 33053 025.5844 014.8830 0014147 267.7513 092.1425 15.05018081 95518